Location: Beekmeers
(50.8953°N, 3.6968°E)
Time: 02:05:33
(UTC+00:00)

Daily predictions for brighter satellites

Satellite Brightness Start Highest point End
(mag) Time Altitude Azimuth Time Altitude Azimuth Time Altitude Azimuth
Cosmos 2228 Rocket 3.5 00:05:20 34° SSE 00:06:58 55° E 00:11:23 10° NNE
Meteor 1-12 Rocket 4.3 00:02:38 10° NNW 00:08:33 90° WSW 00:11:47 29° S
Cosmos 2082 Rocket 2.9 00:07:01 28° SSE 00:09:27 42° ESE 00:14:48 10° NE
Helios 1A Rocket 3.8 00:07:43 22° SE 00:09:45 40° ENE 00:13:24 10° N
Cosmos 1833 Rocket 2.9 00:08:10 24° SW 00:11:34 69° WNW 00:17:12 10° NNE
BREEZE-M DEB (TANK) 3.5 00:13:11 38° S 00:13:11 38° S 00:18:45 10° SE
Cosmos 724 4.3 00:12:02 30° SSW 00:15:03 71° SE 00:20:52 10° NE
Cosmos 1908 4.1 00:12:25 10° NNW 00:15:36 30° W 00:16:07 29° WSW
CZ-2D R/B 4.5 00:14:22 10° NE 00:17:00 13° E 00:19:37 10° ESE
Cosmos 2360 Rocket 4.4 00:15:15 10° NNW 00:19:53 25° NE 00:24:29 10° E
PSLV R/B 4.5 00:20:14 10° N 00:24:33 43° WNW 00:26:44 25° WSW
USA 267 3.2 00:18:14 10° ENE 00:24:48 80° SSE 00:30:21 15° SW
Cosmos 1140 Rocket 3.9 00:22:28 25° SW 00:25:26 59° WNW 00:30:37 10° NNE
Cosmos 1441 Rocket 3.9 00:23:16 10° NNW 00:26:33 34° W 00:27:04 33° WSW
Cosmos 1707 4.2 00:26:20 21° WSW 00:27:39 26° WNW 00:30:46 10° NNW
Cosmos 1455 3.8 00:26:14 10° NNE 00:29:12 26° ENE 00:31:18 15° ESE
Cosmos 1733 Rocket 2.9 00:25:53 10° NNW 00:30:13 79° W 00:31:54 37° S
Cosmos 841 Rocket 4.3 00:25:58 10° NNW 00:31:03 49° ENE 00:36:08 10° SE
Resurs 1-4 Rocket 4.2 00:28:28 10° NE 00:31:58 18° E 00:35:27 10° SE
GP-B 3.7 00:29:06 10° N 00:33:19 46° W 00:35:02 30° SW
Cosmos 1400 Rocket 2.7 00:32:16 41° SSW 00:33:36 84° WNW 00:37:37 10° NNE
H-2A R/B 3.0 00:32:38 10° N 00:36:48 41° WNW 00:38:59 24° WSW
Cosmos 381 Rocket 4.5 00:31:22 10° NNW 00:37:47 74° WSW 00:41:55 23° S
Cosmos 2278 4.2 00:34:37 10° NNW 00:40:19 62° NE 00:45:58 10° SE
NOSS 3-4 (A) 4.1 00:35:19 10° NW 00:41:56 51° WSW 00:47:10 20° S
NOSS 3-4 (C) 4.0 00:35:25 10° NW 00:42:01 52° WSW 00:47:19 20° S
Cosmos 1346 Rocket 2.6 00:39:56 10° NNW 00:43:50 84° W 00:45:17 37° S
Cosmos 676 Rocket 4.4 00:42:47 28° S 00:45:28 56° ESE 00:50:41 10° NNE
Cosmos 468 Rocket 4.0 00:41:29 10° NNW 00:46:47 71° WSW 00:49:47 26° S
Cosmos 2251 Rocket 3.8 00:44:26 25° SW 00:47:24 61° WNW 00:52:40 10° NNE
Cosmos 407 Rocket 3.9 00:44:27 24° SW 00:47:33 57° WNW 00:52:45 10° NNE
Cosmos 1954 Rocket 4.1 00:48:42 29° S 00:51:28 74° ESE 00:56:47 10° NNE
Okean 2 3.9 00:49:49 28° SSE 00:51:35 49° E 00:55:26 10° NNE
Cosmos 2333 Rocket 3.9 00:47:43 10° NNW 00:52:54 34° NE 00:58:05 10° ESE
CZ-2C R/B 3.9 00:49:10 10° SE 00:53:52 37° ENE 00:58:36 10° N
Meteor 1-4 Rocket 3.4 00:53:08 25° SE 00:53:58 29° E 00:56:36 10° NNE
Cosmos 1190 Rocket 4.0 00:51:10 28° SSW 00:54:00 83° WNW 00:59:20 10° NNE
Cosmos 1763 Rocket 4.0 00:51:05 10° NW 00:56:04 42° WSW 00:58:19 28° SSW
Cosmos 2322 Rocket 3.3 00:52:31 10° NNW 00:57:57 45° NE 01:03:22 10° SE
Cosmos 1300 3.5 00:55:27 10° NNW 00:58:40 32° W 00:59:22 29° WSW
Cosmos 1703 Rocket 4.2 00:58:54 22° SSE 01:01:25 48° E 01:05:43 10° NNE
USA 234 3.5 00:56:30 12° SSE 01:02:21 44° SW 01:08:36 10° WNW
SL-14 R/B 3.9 01:01:39 28° SW 01:03:08 42° WNW 01:06:49 10° N
Cosmos 1953 2.3 00:59:21 10° N 01:03:18 80° E 01:05:20 27° SSE
SL-8 R/B 4.0 00:59:41 10° W 01:04:09 41° SSW 01:08:37 10° SE
Cosmos 1697 Rocket 4.2 01:00:32 10° WNW 01:04:14 18° W 01:05:44 16° WSW
Cosmos 1862 Rocket 3.8 01:04:13 29° SW 01:06:10 55° WNW 01:10:27 10° N
Aureole 3 3.2 01:09:14 36° WSW 01:09:55 43° WNW 01:12:49 10° N
Cosmos 1980 Rocket 3.1 01:06:44 10° NW 01:11:43 32° WSW 01:14:01 24° SW
Nadezhda 1 Rocket 4.1 01:06:36 10° N 01:13:04 87° E 01:18:17 16° S
Cosmos 540 Rocket 4.0 01:09:42 10° NW 01:14:30 40° WSW 01:16:52 25° SSW
Cosmos 1242 Rocket 4.2 01:13:26 14° SE 01:14:54 19° E 01:17:03 10° NE
Cosmos 1300 Rocket 4.4 01:12:10 10° N 01:16:23 47° ENE 01:20:25 11° SSE
ADEOS II 3.7 01:14:52 10° NE 01:19:19 27° E 01:23:44 10° SSE
MOZ.5/SAFIR/RUBIN 5/SL-8 3.8 01:18:21 22° S 01:21:25 72° WSW 01:26:09 10° NNW
Cosmos 2369 4.5 01:17:45 10° NW 01:22:50 34° WSW 01:25:30 22° SSW
COSMOS 2406 3.3 01:19:32 22° SW 01:23:20 75° WNW 01:29:08 10° NNE
Cosmos 1408 4.3 01:21:24 11° SE 01:23:23 20° E 01:25:39 10° NE
Cosmos 1356 Rocket 4.0 01:22:17 25° SW 01:24:15 43° WNW 01:28:12 10° N
Lacrosse 5 rocket 1.1 01:20:12 10° WNW 01:24:18 66° SW 01:28:13 10° SE
IDEFIX/ARIANE 42P 3.0 01:19:23 10° NNE 01:24:35 56° E 01:28:28 18° S
EXPRESS MD2 4.4 01:27:55 18° SSE 01:28:20 18° SE 01:30:59 10° E
Okean 1-7 3.2 01:30:04 25° SSW 01:32:24 58° WNW 01:36:41 10° N
Okean 3 4.4 01:34:53 21° WSW 01:37:00 33° WNW 01:40:45 10° N
ATLAS 2AS CENTAUR R/B 3.5 01:32:32 10° NW 01:39:20 54° NE 01:45:52 10° ESE
Cosmos 1315 Rocket 2.7 01:39:37 24° SSW 01:41:50 74° WNW 01:45:46 10° N
SL-16 R/B 2.2 01:36:51 10° NW 01:42:30 67° WSW 01:48:06 10° SSE
CZ-2C R/B 4.0 01:37:21 10° NNE 01:43:01 49° E 01:48:25 11° S
SJ 16-02 2.7 01:39:50 12° SSE 01:43:18 31° ESE 01:47:06 10° NE
Helios 1A Rocket 4.3 01:43:06 19° WSW 01:44:16 21° W 01:47:16 10° NW
Cosmos 1850 Rocket 4.1 01:46:14 18° SSW 01:50:09 76° ESE 01:55:26 10° NNE
Cosmos 2082 Rocket 3.1 01:48:50 14° WSW 01:53:32 43° NW 01:59:00 10° NNE
Cosmos 1709 Rocket 4.1 01:49:42 15° S 01:55:06 89° E 02:01:32 10° N
Cosmos 1741 Rocket 4.1 01:51:18 18° SSW 01:55:16 79° ESE 02:00:33 10° NNE
Cosmos 2219 Rocket 3.2 01:50:09 10° NNW 01:55:39 50° NE 02:01:09 10° SE
Cosmos 1782 Rocket 3.7 01:51:57 10° NNW 01:56:17 59° W 01:59:39 16° S
Cosmos 2181 Rocket 4.4 01:50:22 10° N 01:56:45 67° ENE 02:03:00 10° SSE
Cosmos 1908 Rocket 4.5 01:52:56 10° NNW 01:56:54 32° W 01:59:24 18° SW
SL-16 R/B 2.9 01:51:01 10° SSE 01:57:13 70° ENE 02:03:28 10° NNW
CZ-2D R/B 2.3 01:52:25 10° NNE 01:57:56 77° ESE 02:02:42 14° S
Cosmos 1703 4.0 02:00:01 11° SSE 02:03:29 46° E 02:07:05 10° NNE
Cosmos 1455 3.3 02:00:47 10° NW 02:03:37 24° W 02:05:04 18° SW
Meteor 1-28 Rocket 3.4 02:00:39 10° SSE 02:04:12 65° ENE 02:07:44 10° N
Cosmos 2360 Rocket 2.2 01:58:53 10° NNW 02:04:36 86° WSW 02:10:17 10° SSE
CRYOSAT 2 4.4 02:01:08 10° N 02:06:02 84° E 02:10:48 11° S
Cosmos 968 Rocket 3.6 02:02:10 15° SSW 02:06:23 71° ESE 02:11:31 10° NNE
USA 267 3.8 02:01:19 10° ENE 02:07:42 59° NNW 02:14:05 10° W
Genesis I 3.9 02:05:37 16° S 02:08:01 38° ESE 02:11:22 10° NE
RESURS DK-1 2.5 02:04:42 10° NNW 02:08:47 74° ENE 02:12:51 10° SE
Meteor 1-24 Rocket 4.4 02:03:28 10° S 02:09:21 57° E 02:15:12 10° NNE
MSX 3.9 02:05:09 10° NNE 02:10:54 78° WNW 02:16:00 13° SSW
Resurs 1-4 Rocket 2.1 02:07:07 10° NNE 02:12:24 80° WNW 02:17:03 13° SSW
Cosmos 841 Rocket 4.4 02:08:11 10° NW 02:12:40 30° W 02:16:19 14° SSW
H-2A R/B 3.8 02:12:53 10° N 02:16:45 47° WNW 02:19:49 15° SW
FENGYUN 3A 3.8 02:16:25 10° NNE 02:21:50 78° ESE 02:27:12 10° SSW
COBE Rocket 4.5 02:18:47 10° N 02:23:25 45° WNW 02:27:39 13° SW
Meteor 1-4 Rocket 4.2 02:25:17 11° WSW 02:27:03 16° WNW 02:28:58 10° NNW
Geosat 4.3 02:27:23 10° SE 02:32:22 72° NE 02:37:24 10° NNW
SL-24 R/B 4.4 02:29:01 10° S 02:33:52 66° W 02:38:41 10° N
CZ-2C R/B 3.2 02:29:21 10° SSW 02:34:07 38° W 02:38:58 10° NNW
Cosmos 2242 Rocket 3.9 02:30:52 12° SSW 02:34:52 53° WNW 02:39:17 10° N
Cosmos 2333 Rocket 2.3 02:31:53 10° NW 02:37:29 57° WSW 02:43:05 10° S
Sich 1 Rocket 3.8 02:33:04 10° N 02:37:37 78° E 02:42:05 10° SSE
Cosmos 2098 Rocket 3.7 02:32:58 10° NNW 02:37:58 63° W 02:43:54 10° S
Timation 1 Rocket 4.4 02:32:20 12° SW 02:38:00 75° WNW 02:44:00 10° NNE
Cosmos 1825 3.6 02:35:11 10° SSE 02:38:15 31° E 02:41:20 10° NNE
Cosmos 2151 Rocket 3.6 02:35:37 10° N 02:40:09 88° E 02:44:36 10° S
Cosmos 1814 Rocket 4.4 02:36:17 10° NW 02:41:13 45° WSW 02:46:11 10° S
Cosmos 2292 4.4 02:38:52 10° NNW 02:41:54 59° W 02:45:28 10° S
Cosmos 2322 Rocket 2.7 02:36:45 10° NW 02:41:56 38° WSW 02:47:07 10° S
SL-27 R/B 1.9 02:40:26 12° SSW 02:42:58 72° WNW 02:45:47 10° NNE
Cosmos 1892 3.6 02:40:59 10° SSE 02:44:20 43° E 02:47:42 10° NNE
Cosmos 1242 Rocket 3.6 02:44:54 11° WSW 02:47:07 22° WNW 02:49:28 10° NNW
Meteor 2-5 Rocket 3.9 02:43:46 10° SSW 02:49:41 77° WNW 02:55:41 10° N
SL-4 R/B 3.7 02:48:01 10° SSW 02:51:31 24° SE 02:55:07 10° E
Okean 2 Rocket 3.0 02:48:37 10° NNW 02:53:02 76° W 02:57:25 10° S
Cosmos 1408 3.6 02:53:43 10° SW 02:56:10 23° WNW 02:58:38 10° NNW
Cosmos 2074 Rocket 4.1 02:50:42 10° S 02:56:56 88° W 03:03:12 10° N
Cosmos 1674 Rocket 3.7 02:53:57 10° S 02:58:24 86° E 03:02:52 10° N
Cosmos 1570 Rocket 4.0 02:53:51 10° NNW 02:59:09 70° WSW 03:04:27 10° SSE
ADEOS II 2.5 02:54:07 10° N 02:59:13 52° WNW 03:04:17 10° SW
Lacrosse 5 rocket 3.0 03:00:01 10° W 03:01:55 13° SW 03:03:46 10° SSW
Cosmos 2208 Rocket 4.0 02:56:59 10° NNW 03:02:20 84° WSW 03:07:34 10° SSE
IDEFIX/ARIANE 42P 3.9 02:59:25 10° N 03:03:48 27° WNW 03:08:10 10° WSW
ALOS 2.3 03:00:02 10° N 03:04:39 69° WNW 03:09:13 10° SSW
Cosmos 1833 4.3 02:59:01 10° SSW 03:04:42 80° WNW 03:10:23 10° NNE
